Terminal Aerodrome Forecast
Issued by NWS

Home | Current Version | Previous Version | Text Only | Print | Product List | Glossary On
Versions: 1 2 3 4 5 6 7 8 9 10 11 12 13 14
000
FTUS43 KMPX 051725
TAFRWF
TAF
KRWF 051725Z 0518/0618 12012G18KT P6SM OVC080
     FM052200 13013G20KT P6SM SCT015 OVC050
     FM060200 12010KT P6SM VCSH OVC015
     FM060800 13011KT 6SM -SHRA SCT015 BKN025
     FM061400 14014G21KT 5SM -RA BR SCT020 BKN030=

USA.gov is the U.S. government's official web portal to all federal, state and local government web resources and services.